NOAA 16 DEB

Satellite information

Favourite Embed

Satellite Type and Status

DEBRISIN ORBIT

Key statistics

Satellite NOAA 16 DEB at a glance.

Uptime

9056

Days in orbit

Revolutions

≈ 14.7

Per day

Orbit

SSO

Sun Synchronous Orbit

Inclination

99.0

Latest

Satellite identification and parameters

Extended collection of information and parameters for NOAA 16 DEB.

Object identification

Identified? True

Debris? True

Object name: NOAA 16 DEB

International designator: 2000-055BD

Object number (NORAD): 41094

Object ID (CCSDS): 41094

Country: UNITED STATES OF AMERICA (US)

Current information (Y/N): Y

RCS size: SMALL

Orbital parameters

Period: 98.245 minutes

Inclination: 98.9985 deg

SMA: 7052.905 km

Apoapsis: 703.189 km

Periapsis: 646.351 km

RAAN: 93.7121 deg

Eccentricy: 0.0040294

Argument of periapsis: 276.2428 deg

Mean anomaly: 83.4183 deg

Mean motion: 14.65718884 rev/day

Mean motion (dot): 0.00011155 rev/day2

B* drag term: 0.0020321 1/REarth

Two-line elements (TLE)

Creation date: July 7, 2025, 2:36 p.m.

Reference frame: TEME

Reference center: EARTH

Epoch: July 7, 2025, 1:04 p.m. UTC

TLE line 0: 0 NOAA 16 DEB

TLE line 1: 1 41094U 00055BD 25188.54482342 .00011155 00000-0 20321-2 0 9997

TLE line 2: 2 41094 98.9985 93.7121 0040294 276.2428 83.4183 14.65718884502579

Live tracking on map

Real-time ground track for satellite NOAA 16 DEB.

In-orbit conjunctions

A list of the most updated potential collisions computed for object NOAA 16 DEB.

Target Orbit TCA Probability of collision Miss distance Type
COSMOS 2251 DEB LEO 2025-01-08 18:37:00 0.0001079666 365.0 (m) DEBRIS
FENGYUN 1C DEB SSO 2024-11-13 02:33:00 0.0001639202 577.0 (m) DEBRIS
IRIDIUM 33 DEB LEO 2024-08-05 19:34:34 0.0001215692 109.0 (m) DEBRIS
IRIDIUM 33 DEB LEO 2024-07-21 15:57:28 0.0008996615 46.0 (m) DEBRIS

Associated space launch

The NOAA K, L and M POES satellites begin the fifth generation of improved environmental monitoring in support of NOAA missions. The instrument payload has significant improvements and additions/deletions. The instrument changes have effected the spacecraft subsystems and data formats.

NOAA 16 DEB was lifted into orbit during the mission ‘Titan II SLV | NOAA 16’, on board a Titan II SLV space rocket.

The launch took place on Sept. 21, 2000, 10:22 a.m. from Space Launch Complex 4W.

For more information about the launch, click the button.

Launch to space Titan II SLV | NOAA 16
Titan II SLV | NOAA 16

Agency: N/A

Status: Launch Successful

Launch date: Sept. 21, 2000, 10:22 a.m. UTC

Rocket: Titan II SLV

Launch pad: Space Launch Complex 4W

Location: Vandenberg SFB, CA, USA

...

Latest news about this satellite

There are no fresh news available about this satellite. Check back as we update our databases every day.


Newsletter sign-up

Weekly statistics, charts and insights to help you stay on top of the space industry.